Location: Benque
(43.2594°N, 0.9178°E)
Time: 17:51:05
(UTC+00:00)

CZ-2D R/B - Pass Details

Date: 24 January 2020
Orbit: 522 x 538 km, 97.4° (Epoch: 27 February)

Event Time Altitude Azimuth Distance (km) Brightness Sun altitude
Rises 18:45:56 0° 172° (S) 2,648 6.8 -19.7°
Reaches altitude 10° 18:48:02 10° 175° (S) 1,767 5.9 -20.1°
Maximum altitude 18:51:50 69° 259° (WSW) 571 3.5 -20.8°
Drops below altitude 10° 18:55:41 10° 343° (NNW) 1,791 6.0 -21.5°
Sets 18:57:50 0° 346° (NNW) 2,689 6.9 -21.9°
